Vertical_Velocity
5 4 4 5 4 2 -0 1 3 3 -0 -3 -4 -3 1 3 4 4 3 2 2 2 2 2 1 1 1 0 0 0 0 0 -1 -1 -2 -1 -1 0 1 1 0 0 0 -1 -1 -1 -2 -2 -1 -1 -1 -1 -0 -0 -0 -1 -1 -2 -2 -2 -2 -2 -2 -2 -2 -3 -3 -3 -3 -3 -3 -3 -3 -3 -3 -3 -3 -3 -3 -3 -2 -2 -2 -1 -1 -1
4 4 4 4 4 4 1 2 4 5 3 -1 -3 -3 -0 2 3 3 2 1 2 2 2 2 1 1 1 1 0 0 0 0 -1 -2 -2 -2 -1 -0 1 1 1 1 1 -0 -1 -1 -2 -1 -1 -1 -1 -1 -1 -0 -0 -0 -1 -1 -2 -2 -2 -2 -2 -2 -3 -3 -3 -4 -3 -3 -3 -3 -3 -3 -3 -3 -3 -3 -3 -2 -2 -2 -2 -1 -1 -1
4 3 2 3 4 4 3 3 4 5 5 3 1 1 3 4 3 2 1 2 2 3 3 2 2 1 1 1 1 0 0 0 -1 -2 -3 -3 -2 -1 1 1 2 2 1 0 -0 -1 -1 -1 -1 -1 -1 -1 -1 -0 -0 -0 -1 -1 -1 -2 -2 -2 -2 -2 -2 -3 -3 -3 -3 -3 -3 -3 -3 -3 -3 -3 -3 -3 -3 -2 -2 -2 -2 -1 -1 -1
3 2 2 3 4 4 4 5 5 5 6 6 7 7 9 8 5 2 2 3 3 3 3 2 2 2 1 1 1 0 0 -0 -1 -2 -3 -3 -3 -1 1 2 2 2 1 0 -0 -1 -1 -1 -1 -1 -1 -1 -1 -1 -0 -1 -1 -1 -1 -1 -1 -2 -1 -2 -2 -2 -3 -3 -3 -3 -3 -3 -3 -3 -3 -3 -3 -3 -3 -2 -2 -2 -2 -1 -1 -1
2 2 2 4 4 3 3 5 6 6 6 8 10 12 13 9 6 3 3 3 4 4 4 3 2 2 2 1 1 1 0 -0 -2 -3 -4 -4 -3 -2 0 2 2 2 2 1 -0 -1 -1 -1 -1 -1 -0 -0 -0 -0 -1 -1 -1 -1 -1 -2 -2 -2 -2 -2 -2 -2 -2 -3 -3 -3 -3 -3 -3 -3 -3 -3 -2 -2 -2 -2 -2 -2 -2 -2 -1 -1
1 2 3 4 3 3 3 4 5 6 7 9 13 15 14 10 7 5 4 4 4 4 4 3 2 2 2 1 1 1 0 -0 -2 -3 -5 -5 -4 -2 -1 1 2 2 2 1 -0 -1 -1 -1 -1 -0 -0 -0 -0 -0 -1 -1 -1 -1 -1 -2 -2 -2 -2 -2 -2 -2 -2 -3 -3 -3 -3 -3 -3 -3 -2 -2 -2 -2 -2 -2 -2 -2 -2 -2 -1 -1
-1 0 2 2 3 3 4 4 4 5 7 11 15 16 14 10 8 7 5 5 4 4 4 3 2 2 1 1 1 1 0 -1 -2 -3 -4 -5 -4 -3 -1 0 2 2 2 1 0 -1 -1 -1 -1 -0 0 0 0 -0 -1 -1 -1 -1 -1 -2 -2 -2 -2 -2 -2 -3 -3 -3 -3 -3 -3 -3 -3 -3 -2 -2 -2 -2 -2 -2 -1 -2 -2 -2 -1 -1
-3 -3 0 1 2 2 4 4 3 4 8 14 17 17 13 10 9 7 6 5 5 5 4 3 2 2 1 1 1 1 0 -1 -2 -3 -3 -4 -4 -3 -2 -0 1 2 3 2 0 -1 -1 -1 -1 0 0 0 0 -0 -0 -1 -1 -1 -1 -2 -2 -2 -2 -2 -2 -3 -3 -3 -3 -3 -3 -3 -3 -2 -2 -2 -2 -2 -2 -1 -1 -1 -2 -1 -1 -1
-2 -3 -1 -0 1 2 2 2 2 4 9 16 18 17 13 11 9 8 7 6 6 5 4 2 2 1 1 1 1 1 0 -0 -1 -2 -3 -3 -4 -4 -3 -1 1 2 3 2 1 -0 -1 -1 -0 0 1 1 0 0 -0 -0 -1 -1 -1 -2 -2 -2 -2 -2 -2 -3 -3 -3 -3 -3 -3 -3 -3 -2 -2 -2 -2 -2 -1 -1 -1 -1 -1 -1 -1 -1
-1 -1 0 -1 -0 1 2 1 2 5 12 17 18 16 13 11 10 9 8 7 5 4 3 3 2 1 1 1 1 0 -0 -0 -1 -2 -3 -3 -4 -4 -4 -2 -0 2 3 2 1 -0 -1 -1 -0 1 1 1 0 0 -0 -0 -1 -1 -1 -2 -2 -2 -2 -2 -2 -3 -3 -3 -3 -3 -2 -2 -2 -2 -2 -2 -2 -2 -1 -1 -1 -1 -1 -1 -1 -1
2 1 2 1 -0 -0 1 2 4 8 16 18 17 15 12 11 10 9 8 7 5 4 3 2 2 2 1 2 1 1 0 -0 -1 -2 -3 -4 -4 -5 -4 -2 -0 1 3 2 1 0 -1 -0 0 1 1 1 0 0 -0 -0 -0 -1 -1 -1 -2 -2 -2 -2 -2 -2 -3 -3 -3 -3 -2 -2 -2 -2 -2 -2 -2 -2 -1 -1 -1 -1 -1 -1 -1 -1
5 4 3 2 1 0 -1 1 5 11 19 20 18 15 11 9 8 8 8 7 6 4 3 2 2 2 2 2 2 2 1 -1 -1 -2 -3 -4 -4 -5 -4 -2 -0 1 2 2 1 0 -1 0 1 1 1 1 0 -0 -0 -0 -0 -1 -1 -1 -2 -2 -2 -2 -2 -2 -3 -3 -3 -3 -2 -2 -2 -2 -2 -2 -2 -1 -1 -1 -1 -1 -1 -1 -1 -1
6 6 5 3 2 1 -0 1 6 13 20 21 19 14 10 7 6 6 6 6 6 4 3 3 2 2 2 2 2 2 1 -0 -2 -2 -3 -4 -4 -4 -4 -2 -0 1 2 2 1 0 -0 0 1 1 1 1 0 -0 -0 -1 -1 -1 -1 -1 -2 -2 -2 -2 -2 -2 -2 -2 -3 -2 -2 -2 -2 -2 -2 -2 -1 -1 -1 -1 -1 -1 -1 -1 -1 -1
5 5 5 5 3 1 0 3 8 14 20 21 18 13 8 7 6 5 5 5 5 4 3 3 3 3 2 2 2 2 1 -0 -1 -2 -3 -4 -4 -4 -3 -1 0 1 1 2 1 1 -0 1 1 1 1 1 0 -0 -0 -1 -1 -1 -1 -2 -2 -2 -2 -2 -2 -2 -2 -2 -2 -2 -2 -2 -2 -2 -2 -2 -1 -1 -1 -1 -1 -1 -1 -1 -1 -1
5 5 6 5 3 2 2 6 11 16 21 21 17 12 8 6 4 3 4 4 4 4 4 3 3 3 3 3 3 2 1 0 -1 -2 -3 -3 -3 -3 -3 -1 0 1 1 1 1 1 0 1 1 2 1 1 0 -0 -0 -0 -1 -1 -1 -2 -2 -2 -3 -2 -2 -2 -2 -2 -2 -2 -2 -2 -2 -2 -2 -1 -1 -1 -1 -1 -1 -1 -1 -1 -1 -1
7 8 8 6 4 3 3 8 13 18 22 20 16 12 8 4 2 1 2 3 4 4 4 4 4 4 4 4 3 2 1 0 -1 -2 -4 -4 -3 -2 -3 -1 0 1 1 1 1 1 0 1 1 1 1 1 0 0 -0 -0 -0 -1 -1 -2 -2 -2 -3 -2 -2 -2 -2 -2 -2 -2 -2 -2 -2 -2 -1 -1 -1 -1 -1 -1 -1 -1 -1 -1 -1 -1
7 9 10 9 6 4 4 9 15 19 21 18 14 10 6 2 0 0 2 3 4 5 5 5 5 5 5 4 3 2 1 -0 -1 -1 -3 -3 -3 -2 -2 -1 0 1 1 1 1 1 0 1 1 1 1 1 0 0 -0 -0 -0 -0 -1 -1 -2 -2 -3 -2 -2 -2 -2 -2 -2 -2 -2 -2 -2 -2 -1 -1 -1 -1 -1 -1 -1 -1 -1 -1 -1 -1
5 7 8 8 7 7 7 12 15 17 17 15 12 9 5 2 1 2 3 4 5 6 5 5 5 5 6 5 4 2 0 -1 -1 -0 -1 -2 -2 -2 -2 -2 -0 1 1 1 1 1 1 1 1 1 1 0 0 -0 -0 -0 -0 -0 -1 -1 -2 -2 -2 -2 -2 -2 -2 -2 -2 -2 -2 -2 -2 -1 -1 -1 -1 -1 -1 -1 -1 -1 -1 -1 -1 -1
2 3 4 6 7 9 10 12 13 14 13 11 9 7 5 3 3 3 4 6 6 6 5 5 4 4 5 5 4 2 1 -1 -0 1 1 -1 -2 -1 -2 -2 -1 0 1 1 1 1 1 1 1 1 0 0 -0 -0 -0 -0 -0 -0 -1 -1 -2 -2 -2 -2 -2 -2 -2 -2 -2 -2 -2 -2 -2 -1 -1 -1 -1 -1 -1 -0 -0 -1 -1 -1 -1 -2
1 1 2 4 6 8 10 11 12 11 10 7 6 5 3 3 3 3 4 5 5 5 4 5 5 4 4 4 3 2 1 -0 1 1 1 -1 -1 -1 -1 -2 -1 0 1 0 1 1 1 1 1 0 -0 -0 -0 -0 -0 -0 -0 -1 -1 -1 -2 -2 -2 -2 -2 -2 -2 -2 -2 -2 -2 -2 -1 -1 -1 -1 -1 -1 -1 -0 -0 -1 -1 -1 -1 -2
2 1 1 2 3 4 5 6 7 6 5 4 3 3 2 2 2 3 3 4 3 3 4 5 4 4 4 4 3 2 0 1 1 1 0 -0 -0 -1 -2 -2 -1 0 1 0 0 1 2 2 1 0 -0 -0 -0 -0 -0 -0 -1 -1 -1 -1 -2 -2 -2 -2 -2 -2 -2 -2 -2 -2 -2 -1 -1 -1 -1 -1 -1 -1 -1 -0 -0 -0 -1 -1 -1 -1
2 2 1 0 -0 -0 0 -0 -1 -1 -1 1 2 1 1 2 2 1 1 2 2 2 3 3 3 3 5 5 4 2 1 1 1 1 1 1 0 -1 -2 -2 -1 1 1 0 0 1 2 2 1 0 -0 -0 -0 -0 -0 -0 -0 -1 -1 -1 -2 -2 -2 -2 -2 -2 -2 -2 -2 -2 -1 -1 -1 -1 -1 -1 -1 -1 -1 -0 -0 -0 -1 -1 -1 -1
1 1 0 -1 -1 -1 -1 -2 -4 -5 -3 -0 1 1 0 1 1 1 0 1 2 2 2 2 3 3 5 5 4 3 3 2 1 1 2 1 -0 -2 -3 -2 -1 1 1 0 1 1 2 2 1 -0 -0 -0 -0 -0 -0 -0 -0 -1 -1 -1 -2 -2 -2 -2 -2 -2 -2 -2 -2 -1 -1 -1 -1 -1 -1 -1 -1 -1 -1 -0 -0 -0 -1 -1 -1 -1
-0 -1 -1 -2 -2 -2 -2 -3 -4 -5 -3 -1 -0 0 -0 0 0 1 1 2 2 2 2 2 3 3 4 5 5 4 3 2 1 1 2 1 -0 -2 -3 -2 -1 1 1 1 1 2 2 2 0 -0 -0 0 0 -0 -0 -0 -0 -1 -1 -1 -2 -2 -2 -2 -2 -2 -2 -2 -1 -1 -1 -1 -1 -1 -1 -1 -1 -1 -1 -0 -0 -0 -1 -1 -1 -1
2 2 2 2 1 0 -0 -2 -4 -5 -4 -2 -1 -1 -0 0 0 1 1 2 2 2 1 2 2 3 3 4 5 5 3 2 1 1 2 1 -0 -1 -2 -2 -1 0 1 1 1 1 2 1 0 -0 -0 0 0 0 -0 -0 -0 -1 -1 -1 -2 -2 -2 -2 -2 -2 -2 -2 -1 -1 -1 -1 -1 -1 -1 -1 -1 -1 -1 -0 -0 -0 -0 -1 -1 -1
5 7 9 9 8 6 4 1 -2 -3 -3 -2 -0 1 2 2 2 1 1 1 1 0 0 1 1 2 3 5 6 5 3 1 1 2 2 1 1 -0 -2 -3 -2 -0 2 1 1 1 1 1 1 -0 -1 -0 0 0 -0 -0 -1 -1 -1 -1 -2 -2 -2 -2 -2 -2 -2 -1 -1 -1 -1 -1 -1 -1 -1 -1 -1 -1 -1 -0 -0 -0 -0 -1 -1 -1
5 8 11 12 12 11 9 6 3 1 0 2 3 5 7 6 5 3 1 -1 -1 -1 0 1 2 2 3 5 5 4 2 2 2 2 1 1 1 1 -1 -3 -2 -0 2 2 1 1 1 1 0 0 -0 -0 -0 0 -0 -0 -1 -1 -1 -1 -2 -2 -2 -2 -2 -1 -1 -1 -1 -1 -1 -1 -1 -1 -1 -1 -1 -1 -1 -0 -0 -0 -1 -1 -1 -0
5 7 7 8 9 10 10 8 7 5 4 5 7 9 10 10 7 4 -1 -3 -3 -1 1 2 2 3 4 4 3 2 2 3 3 2 1 1 2 2 -1 -3 -2 0 2 1 1 1 1 0 0 0 0 0 -0 -0 -0 -0 -1 -1 -1 -1 -1 -1 -2 -2 -1 -1 -1 -1 -1 -1 -1 -1 -1 -1 -1 -1 -1 -1 -1 -1 -1 -1 -1 -1 -1 -1
8 7 5 4 5 6 7 7 6 6 5 6 7 9 10 9 7 3 -3 -4 -2 -0 1 2 2 3 3 3 2 2 4 4 3 1 -0 1 2 1 -2 -3 -1 1 1 0 1 2 1 -1 -1 -0 1 1 0 -0 -1 -1 -1 -1 -1 -1 -1 -1 -1 -1 -1 -1 -1 -1 -1 -1 -1 -1 -1 -1 -1 -1 -1 -1 -0 -1 -1 -1 -1 -1 -1 -1
11 8 5 4 4 4 5 5 4 4 4 4 5 6 6 6 4 1 -3 -2 -1 0 1 2 2 2 2 2 2 3 4 3 1 -1 -0 2 2 1 -1 -2 -1 1 1 0 1 2 2 -1 -2 -1 1 1 1 -0 -1 -1 -1 -0 -1 -1 -1 -1 -1 -1 -1 -1 -1 -1 -1 -1 -1 -1 -1 -1 -1 -1 -1 -1 -0 -1 -1 -1 -1 -1 -1 -1
10 7 5 4 3 3 3 3 3 2 2 3 3 4 4 3 1 -0 -2 -1 -0 1 2 2 2 2 2 2 3 3 3 1 -1 -2 0 2 3 2 0 -2 -1 1 1 0 1 2 2 -1 -2 -2 -1 1 1 0 -1 -1 -1 -0 -0 -1 -1 -1 -1 -1 -1 -1 -1 -1 -1 -1 -1 -1 -1 -1 -1 -1 -1 -1 -0 -1 -1 -1 -1 -1 -1 -1
7 4 3 4 4 3 3 3 2 2 1 2 2 2 2 0 -1 -1 -1 -1 0 1 3 3 3 2 1 1 2 3 2 -1 -2 -1 1 2 4 3 1 -2 -1 1 1 -0 0 2 2 0 -1 -2 -1 -0 0 0 -0 -0 -0 -0 -0 -1 -1 -1 -1 -1 -1 -0 -0 -1 -1 -1 -1 -1 -1 -1 -1 -1 -1 -1 -0 -1 -1 -1 -1 -1 -1 -1
5 4 4 5 4 4 3 3 2 2 1 1 1 1 -0 -1 -1 -1 -0 0 1 2 4 4 3 2 1 1 1 1 1 -1 -2 -1 1 3 4 4 1 -1 -1 1 1 0 0 0 1 0 -1 -1 -1 -1 -1 -0 -0 -0 -0 -0 -1 -1 -1 -1 -1 -1 -1 -0 -0 -1 -1 -1 -1 -1 -1 -1 -1 -1 -1 -0 -0 -1 -1 -1 -1 -1 -1 -1
5 4 5 5 5 4 4 3 3 2 2 2 1 0 -1 -1 -1 0 1 1 2 3 4 4 3 2 1 1 1 1 0 -2 -2 -1 2 4 4 2 -0 -1 -1 -0 0 1 0 -0 -1 -1 -0 -0 -0 -0 -0 -1 -1 -0 0 0 -1 -1 -1 -1 -0 -0 -0 -0 -0 -0 -1 -1 -1 -1 -1 -1 -1 -1 -1 -0 -0 -1 -1 -1 -1 -1 -1 -0
6 5 5 5 5 5 5 5 4 4 3 3 2 1 -0 0 1 2 2 3 3 3 3 3 2 1 1 1 1 1 -1 -3 -2 0 3 4 3 1 -0 -1 -1 -1 -0 0 1 0 -1 -2 -1 0 0 1 0 -1 -1 -1 -0 0 -0 -1 -1 -1 -0 -0 -0 -0 -0 -0 -0 -1 -1 -1 -1 -1 -1 -1 -1 -1 -1 -1 -1 -1 -1 -1 -1 -0
7 6 5 5 5 5 6 6 6 5 5 4 3 2 2 2 3 3 3 3 3 3 3 2 1 1 1 1 1 1 -1 -2 -1 1 4 3 2 0 -0 -0 -1 -1 -1 0 0 -0 -2 -2 -1 0 1 1 0 -1 -2 -1 -1 -0 -0 -1 -1 -1 -0 -0 -0 -0 0 -0 -0 -1 -1 -1 -1 -1 -1 -1 -1 -1 -1 -1 -1 -1 -1 -0 -0 -0
8 7 7 6 6 5 6 6 6 6 5 4 4 3 3 4 4 4 4 3 3 3 2 1 1 0 0 1 1 0 -1 -0 1 3 3 2 1 0 -0 -0 -1 -1 -1 -0 0 -0 -1 -1 0 1 1 0 -1 -1 -1 -1 -1 -1 -1 -1 -1 -0 -0 -0 -0 -0 0 -0 -0 -1 -1 -1 -1 -1 -1 -1 -1 -1 -0 -1 -1 -1 -1 -0 -0 -0
8 8 8 7 7 6 6 6 6 6 5 4 4 4 4 4 5 5 4 4 3 3 2 1 0 -0 -0 1 1 0 0 2 2 2 2 1 0 -0 -0 -0 -0 -0 -1 -1 -0 0 0 0 1 1 1 -1 -2 -2 -1 -0 -0 -1 -2 -1 -1 -0 -0 -0 0 0 0 -0 -0 -0 -0 -0 -1 -1 -1 -1 -1 -0 -0 -0 -1 -1 -0 -0 -0 -0
8 8 8 8 7 7 6 6 5 4 4 3 3 3 4 4 5 4 4 3 3 2 1 1 0 0 0 1 1 1 1 2 2 2 1 0 -0 -0 -0 -0 -0 -1 -1 -1 -0 1 1 1 1 1 -0 -2 -2 -2 -1 -0 -0 -1 -1 -1 -0 -0 -1 -0 0 0 0 -0 -0 -0 -0 -1 -0 -0 -1 -1 -1 -0 -0 -1 -1 -0 -0 -0 -0 -0
7 7 7 7 7 6 6 5 4 4 3 3 3 4 5 5 4 4 3 3 2 2 1 0 0 0 1 1 1 1 2 1 1 1 1 0 -0 -0 -0 -1 -1 -0 -0 -0 0 0 1 1 1 -0 -1 -2 -2 -1 -0 -1 -1 -1 -0 1 0 -1 -1 -0 0 0 0 0 0 -0 -0 -1 -1 -1 -1 -1 -0 -0 -1 -1 -1 -1 -0 -0 -0 -0
5 5 5 6 6 5 5 4 5 4 3 3 4 5 5 4 4 3 3 2 2 1 1 1 0 0 1 2 2 2 2 1 1 1 0 0 0 0 -0 -1 -1 -0 0 0 0 0 0 0 0 -0 -1 -2 -1 -0 0 -1 -1 -1 0 0 -1 -1 -1 -0 0 0 1 0 0 -0 -0 -0 -1 -1 -1 -1 -1 -1 -1 -0 -0 -0 -0 -0 -0 -1
3 3 4 5 5 4 4 5 5 4 3 4 4 4 4 4 3 3 3 2 2 1 1 1 1 1 2 2 2 2 1 1 1 0 -0 -0 0 0 -0 -1 -0 0 1 1 0 -0 -1 -0 0 0 -0 -1 -1 -0 0 -1 -1 -1 -0 -1 -1 -1 1 0 -0 0 1 0 -0 -0 -0 -1 -1 -1 -1 -0 -0 -0 -0 0 -0 -0 -0 -0 -0 -0
2 2 3 4 3 3 4 5 4 3 4 4 4 4 4 4 3 3 3 3 2 2 1 1 1 1 2 2 2 2 1 0 0 0 0 0 0 0 -0 -0 -0 0 0 0 0 -0 -1 -0 0 0 -0 -1 -0 0 0 -0 -1 -1 -1 -1 -0 1 2 0 -1 -0 1 0 -0 -0 -0 -1 -1 -1 -1 -0 -0 -0 0 -0 -0 -0 -0 -1 -0 -0
1 2 3 3 3 3 4 4 3 3 4 4 4 4 4 4 3 3 3 3 2 2 1 1 1 2 2 3 3 2 0 0 0 0 0 0 0 0 -0 -0 0 0 0 0 -0 -0 -1 -0 -0 -1 -1 -0 0 0 -0 -0 -0 -1 -1 -1 0 1 0 -1 -1 -0 0 -0 -1 -1 -1 -1 -1 -1 -0 -0 -0 -0 -0 -0 -0 -0 -1 -0 -0 -0
1 2 3 3 3 3 3 2 2 3 3 3 3 4 4 4 4 3 3 3 3 2 2 2 2 3 3 3 2 1 -0 0 1 1 0 0 0 0 0 0 0 0 -0 -1 -1 -0 0 0 -0 -1 -1 0 0 0 -0 -0 -0 -0 -1 -0 0 0 -1 -1 -0 0 -0 -0 -1 -1 -1 -1 -0 -0 0 -0 -1 -1 -1 -1 -0 -0 -0 -0 0 0
1 3 3 3 3 3 1 1 1 1 1 2 3 4 4 4 4 3 3 3 2 2 2 2 3 3 3 2 2 1 0 1 1 1 0 0 0 0 0 0 0 0 -0 -1 -1 -1 0 1 1 1 1 0 -0 -0 -0 -0 -0 0 0 0 0 -0 -0 0 0 0 -0 -0 -0 -1 -1 -0 0 -0 -1 -1 -1 -1 -1 -1 -1 -0 -0 -0 -0 -0
1 2 2 2 2 1 -0 -0 -0 -0 -0 1 2 3 3 4 4 3 3 3 2 2 2 3 3 3 2 2 2 1 1 1 1 1 0 0 0 1 1 1 0 0 -0 -1 -1 -0 0 1 1 2 2 0 -0 -1 -1 -1 0 0 0 -0 -0 0 0 0 -0 -0 -0 0 -0 -1 -0 0 0 -1 -2 -2 -1 -1 -1 -1 -0 -0 -0 -0 -0 -0
1 1 0 0 0 -0 -1 -1 -1 -1 -0 1 2 2 2 3 3 3 3 3 2 2 3 3 3 3 2 2 1 1 1 1 1 1 0 0 0 1 1 1 1 0 -0 -0 0 0 1 1 2 2 1 0 -1 -1 -1 -1 -0 0 0 0 0 0 0 -0 -1 -1 0 -0 -0 -0 0 -0 -1 -1 -2 -1 -0 -0 -1 -0 -0 -0 -0 -0 -0 -0
2 1 -0 -0 -1 -1 -1 -1 -1 -1 -0 0 1 1 1 2 2 3 2 2 2 3 3 3 3 2 2 2 1 1 1 1 1 1 1 0 0 1 1 1 1 0 -0 0 0 1 1 2 1 1 -0 -0 -1 -1 -1 -1 -0 0 1 1 0 0 0 -0 -0 -0 0 0 -0 -0 0 -1 -1 -2 -1 -0 -0 -1 -1 -1 -0 -0 -0 -0 -0 -0
2 1 -0 -0 -0 -1 -1 -1 -1 -1 -0 0 1 1 1 1 2 2 2 2 3 3 3 3 3 2 2 2 1 1 1 1 1 1 1 0 0 1 1 1 0 0 0 0 1 1 2 2 1 0 -0 -0 -0 0 0 -0 -0 0 1 1 0 -0 0 0 0 0 0 0 0 -0 -0 -0 -1 -0 1 0 -0 -1 -1 -0 -0 -0 -0 -0 0 0
1 1 0 0 0 -0 -0 -1 -1 -0 -0 0 0 0 0 1 1 2 2 3 3 3 3 3 3 3 2 2 1 1 1 1 1 1 0 -0 0 1 1 0 0 0 0 1 1 2 2 2 2 1 -0 -1 -0 1 1 0 0 1 1 0 -0 -0 1 0 0 -0 0 0 0 0 0 -0 0 0 1 -0 -0 -0 -0 -0 -0 -0 -0 0 0 0
Height
5715 5716 5716 5718 5719 5719 5717 5717 5718 5719 5718 5717 5716 5716 5716 5716 5716 5717 5717 5717 5717 5717 5717 5717 5717 5717 5717 5717 5717 5717 5717 5717 5716 5716 5717 5717 5717 5717 5717 5717 5716 5716 5715 5714 5714 5713 5712 5712 5711 5710 5710 5709 5708 5707 5706 5705 5704 5703 5702 5701 5701 5700 5699 5698 5697 5696 5695 5695 5694 5693 5693 5692 5692 5691 5690 5690 5690 5689 5689 5689 5688 5688 5688 5688 5687 5687
5712 5712 5712 5713 5715 5715 5714 5713 5715 5716 5715 5712 5712 5712 5712 5713 5713 5713 5713 5713 5713 5713 5713 5713 5713 5714 5714 5714 5714 5714 5713 5713 5713 5713 5713 5714 5714 5714 5714 5714 5713 5713 5712 5712 5711 5710 5710 5709 5708 5708 5707 5706 5706 5705 5704 5702 5702 5701 5699 5698 5698 5697 5696 5696 5695 5694 5693 5693 5692 5692 5691 5691 5690 5690 5689 5689 5688 5688 5688 5687 5687 5687 5687 5687 5686 5686
5708 5708 5708 5709 5711 5711 5710 5710 5711 5712 5711 5709 5708 5708 5708 5709 5709 5709 5709 5710 5710 5710 5710 5710 5710 5711 5711 5711 5711 5711 5711 5710 5710 5710 5711 5711 5711 5712 5712 5711 5711 5711 5710 5709 5708 5707 5707 5706 5706 5705 5704 5704 5703 5702 5701 5700 5699 5698 5697 5696 5696 5695 5694 5694 5693 5692 5692 5691 5691 5690 5690 5689 5688 5688 5687 5687 5687 5687 5686 5686 5686 5686 5686 5685 5685 5685
5704 5704 5704 5705 5706 5707 5707 5707 5708 5708 5707 5707 5706 5705 5706 5706 5705 5705 5706 5706 5707 5707 5707 5707 5707 5707 5707 5707 5707 5707 5707 5707 5707 5707 5707 5708 5708 5709 5709 5709 5708 5708 5707 5707 5706 5705 5704 5704 5703 5702 5702 5701 5700 5699 5699 5698 5697 5696 5695 5694 5693 5693 5692 5692 5691 5691 5690 5689 5689 5688 5688 5687 5687 5687 5686 5686 5685 5685 5685 5685 5685 5684 5684 5684 5684 5684
5699 5699 5700 5701 5702 5702 5702 5704 5705 5704 5703 5703 5703 5702 5702 5702 5702 5702 5702 5703 5703 5703 5703 5703 5704 5704 5704 5704 5704 5704 5704 5704 5704 5704 5704 5705 5705 5706 5706 5706 5706 5705 5704 5704 5703 5702 5702 5701 5700 5700 5699 5698 5698 5697 5696 5695 5694 5693 5692 5692 5692 5691 5690 5690 5689 5689 5688 5687 5687 5687 5686 5686 5685 5685 5685 5684 5684 5684 5684 5683 5683 5683 5683 5683 5683 5683
5695 5696 5696 5697 5697 5698 5698 5700 5700 5700 5700 5700 5700 5699 5699 5698 5698 5698 5699 5699 5700 5700 5700 5700 5701 5701 5701 5701 5701 5702 5702 5701 5701 5701 5702 5702 5702 5703 5703 5703 5703 5702 5702 5701 5700 5699 5699 5698 5698 5697 5697 5696 5695 5694 5693 5693 5692 5691 5690 5690 5689 5689 5688 5688 5687 5687 5686 5686 5685 5685 5684 5684 5684 5683 5683 5683 5682 5682 5682 5682 5682 5682 5682 5682 5682 5682
5691 5692 5692 5693 5693 5693 5695 5695 5696 5696 5696 5696 5696 5695 5694 5694 5695 5695 5696 5696 5696 5696 5697 5697 5697 5698 5698 5698 5698 5698 5698 5698 5698 5698 5698 5699 5699 5700 5700 5700 5700 5699 5699 5698 5697 5697 5696 5696 5695 5695 5694 5693 5692 5692 5691 5690 5690 5689 5688 5688 5687 5687 5686 5686 5685 5685 5685 5684 5684 5683 5683 5682 5682 5682 5682 5681 5681 5681 5681 5681 5681 5681 5681 5681 5681 5681
5687 5687 5688 5688 5689 5690 5691 5691 5692 5692 5693 5693 5692 5691 5691 5691 5691 5692 5692 5692 5693 5693 5693 5694 5694 5695 5695 5696 5696 5696 5696 5695 5695 5695 5696 5696 5696 5697 5697 5697 5697 5696 5696 5695 5694 5694 5693 5693 5692 5692 5691 5691 5690 5689 5689 5688 5687 5687 5686 5686 5685 5685 5684 5684 5683 5683 5682 5682 5682 5682 5681 5681 5680 5680 5680 5680 5679 5679 5679 5679 5679 5679 5679 5679 5679 5680
5683 5683 5683 5684 5685 5686 5687 5687 5688 5689 5690 5689 5688 5687 5687 5687 5688 5688 5689 5689 5689 5689 5690 5691 5691 5692 5692 5692 5693 5692 5692 5692 5692 5692 5692 5692 5693 5693 5693 5694 5694 5693 5693 5692 5692 5691 5691 5690 5690 5689 5689 5688 5687 5687 5686 5686 5685 5684 5684 5683 5683 5682 5682 5682 5682 5681 5681 5680 5680 5680 5679 5679 5679 5678 5678 5678 5678 5678 5678 5678 5678 5678 5678 5678 5678 5678
5680 5680 5681 5681 5682 5682 5683 5683 5684 5685 5687 5686 5684 5683 5683 5684 5685 5685 5686 5686 5686 5686 5687 5687 5688 5689 5689 5689 5690 5690 5689 5689 5689 5689 5689 5689 5689 5690 5690 5690 5690 5690 5690 5689 5689 5688 5688 5687 5687 5687 5686 5686 5685 5684 5684 5683 5683 5682 5682 5681 5681 5681 5680 5680 5679 5679 5679 5678 5678 5678 5677 5677 5677 5677 5676 5676 5676 5676 5676 5676 5676 5676 5676 5677 5677 5677
5676 5677 5678 5679 5678 5679 5680 5680 5681 5682 5683 5682 5681 5680 5680 5681 5682 5682 5682 5682 5683 5683 5684 5684 5685 5686 5686 5686 5686 5686 5687 5686 5686 5686 5686 5686 5686 5686 5687 5687 5687 5687 5687 5687 5686 5686 5685 5685 5684 5684 5683 5683 5682 5682 5682 5681 5680 5680 5680 5679 5679 5678 5678 5678 5677 5677 5677 5677 5676 5676 5676 5675 5675 5675 5675 5675 5674 5674 5674 5674 5675 5675 5675 5675 5675 5676
5672 5674 5675 5675 5675 5675 5676 5677 5678 5678 5679 5678 5677 5677 5677 5678 5678 5679 5679 5679 5679 5680 5681 5682 5682 5682 5683 5683 5683 5683 5683 5683 5683 5683 5683 5683 5683 5683 5683 5683 5684 5684 5684 5684 5683 5683 5682 5682 5682 5681 5681 5680 5680 5679 5679 5678 5678 5678 5677 5677 5677 5676 5676 5676 5675 5675 5675 5674 5674 5674 5673 5673 5673 5673 5673 5673 5673 5673 5673 5673 5673 5673 5673 5674 5674 5674
5669 5670 5671 5672 5671 5671 5671 5672 5674 5675 5675 5675 5675 5674 5674 5675 5675 5676 5676 5676 5676 5677 5678 5678 5679 5679 5679 5680 5680 5679 5680 5680 5679 5679 5679 5679 5679 5680 5680 5680 5680 5681 5681 5681 5680 5680 5679 5679 5679 5678 5678 5678 5677 5677 5677 5676 5676 5676 5675 5675 5674 5674 5674 5673 5673 5673 5673 5672 5672 5672 5672 5671 5671 5671 5671 5671 5671 5671 5671 5671 5671 5672 5672 5672 5672 5673
5665 5666 5667 5668 5668 5667 5668 5669 5670 5671 5672 5672 5672 5672 5671 5672 5672 5673 5673 5673 5673 5674 5675 5675 5676 5676 5676 5677 5677 5676 5676 5676 5676 5676 5676 5676 5676 5676 5677 5677 5677 5677 5678 5678 5677 5677 5677 5676 5676 5676 5675 5675 5675 5674 5674 5674 5673 5673 5673 5672 5672 5672 5672 5672 5671 5671 5671 5670 5670 5670 5670 5669 5669 5669 5669 5669 5669 5669 5669 5670 5670 5670 5670 5671 5671 5672
5661 5662 5663 5664 5664 5664 5665 5666 5667 5668 5669 5669 5669 5669 5669 5669 5669 5669 5670 5670 5670 5671 5672 5672 5672 5672 5673 5673 5673 5673 5673 5672 5672 5672 5673 5672 5672 5673 5674 5674 5674 5674 5675 5675 5674 5674 5674 5673 5673 5673 5673 5672 5672 5672 5672 5671 5671 5671 5671 5670 5670 5670 5669 5669 5669 5669 5668 5668 5668 5667 5667 5667 5667 5667 5667 5667 5667 5667 5668 5668 5668 5668 5669 5669 5670 5670
5658 5659 5660 5660 5661 5662 5662 5664 5665 5666 5667 5666 5666 5666 5666 5666 5666 5666 5667 5667 5667 5668 5669 5669 5669 5669 5669 5669 5670 5670 5669 5669 5669 5669 5670 5669 5669 5670 5671 5671 5671 5671 5672 5672 5671 5671 5671 5671 5671 5670 5670 5670 5670 5669 5669 5669 5669 5668 5668 5668 5667 5667 5667 5667 5667 5667 5666 5666 5666 5666 5665 5665 5665 5665 5666 5666 5666 5666 5666 5666 5667 5667 5667 5668 5668 5668
5656 5657 5657 5658 5658 5659 5659 5661 5662 5663 5663 5663 5662 5662 5662 5662 5662 5663 5664 5664 5664 5665 5665 5665 5666 5666 5666 5666 5666 5666 5666 5666 5665 5666 5666 5666 5666 5666 5667 5667 5667 5668 5668 5668 5668 5668 5668 5668 5668 5667 5667 5667 5667 5667 5667 5667 5666 5666 5666 5666 5665 5665 5665 5665 5664 5664 5664 5664 5663 5663 5663 5663 5663 5663 5664 5664 5664 5664 5664 5665 5665 5665 5666 5666 5667 5667
5652 5653 5654 5655 5655 5655 5656 5657 5659 5659 5659 5659 5659 5658 5658 5659 5660 5660 5661 5661 5661 5662 5662 5662 5662 5662 5662 5662 5662 5662 5663 5663 5662 5662 5663 5663 5663 5663 5664 5664 5664 5665 5665 5665 5665 5665 5665 5665 5665 5665 5665 5665 5665 5665 5664 5664 5664 5664 5663 5663 5663 5662 5662 5662 5662 5662 5662 5662 5661 5661 5661 5661 5662 5662 5662 5662 5662 5662 5662 5663 5663 5664 5664 5665 5665 5666
5648 5649 5650 5651 5651 5652 5653 5653 5654 5655 5655 5655 5655 5655 5656 5656 5657 5657 5658 5658 5658 5658 5658 5659 5659 5659 5660 5660 5659 5659 5660 5660 5659 5659 5660 5660 5660 5660 5660 5661 5661 5662 5662 5662 5662 5662 5662 5662 5662 5662 5662 5662 5662 5662 5662 5662 5662 5661 5661 5661 5661 5660 5660 5660 5660 5660 5659 5659 5659 5659 5659 5659 5659 5660 5660 5660 5660 5661 5661 5661 5662 5662 5662 5663 5663 5664
5645 5646 5647 5647 5648 5649 5649 5650 5650 5651 5651 5651 5651 5652 5652 5652 5653 5654 5654 5655 5655 5655 5655 5656 5656 5656 5656 5657 5656 5656 5656 5656 5656 5656 5656 5657 5657 5657 5657 5658 5658 5658 5659 5659 5659 5659 5659 5659 5659 5660 5660 5660 5660 5659 5659 5659 5659 5659 5659 5658 5658 5658 5658 5657 5657 5657 5657 5657 5657 5657 5657 5657 5657 5657 5658 5658 5658 5659 5659 5660 5660 5661 5661 5662 5662 5662
5642 5642 5643 5644 5645 5646 5646 5646 5646 5646 5647 5647 5647 5648 5648 5649 5650 5650 5651 5651 5652 5652 5652 5652 5652 5652 5653 5653 5653 5652 5652 5653 5653 5653 5653 5653 5653 5653 5654 5655 5655 5655 5656 5656 5657 5657 5657 5657 5657 5657 5657 5657 5657 5657 5657 5657 5657 5656 5656 5656 5656 5655 5655 5655 5655 5655 5655 5655 5655 5655 5655 5655 5655 5656 5656 5656 5657 5657 5657 5658 5658 5659 5659 5660 5660 5661
5638 5638 5639 5641 5642 5642 5642 5642 5642 5642 5642 5642 5643 5644 5644 5645 5646 5646 5647 5647 5648 5648 5648 5649 5649 5649 5650 5650 5649 5648 5649 5649 5649 5649 5649 5650 5650 5650 5651 5651 5652 5652 5653 5653 5654 5654 5654 5654 5654 5654 5654 5654 5654 5654 5654 5654 5654 5654 5654 5653 5653 5653 5653 5653 5652 5652 5652 5652 5652 5652 5653 5653 5653 5653 5654 5654 5655 5655 5656 5656 5657 5657 5658 5658 5659 5659
5634 5635 5636 5636 5637 5637 5637 5636 5636 5637 5637 5638 5639 5639 5640 5641 5642 5642 5642 5643 5644 5644 5645 5645 5646 5646 5646 5646 5646 5645 5645 5646 5646 5646 5646 5646 5646 5647 5647 5648 5649 5649 5650 5651 5651 5651 5651 5651 5651 5652 5652 5652 5652 5652 5652 5652 5651 5651 5651 5651 5651 5651 5650 5650 5650 5650 5650 5650 5650 5650 5651 5651 5651 5652 5652 5652 5652 5653 5654 5654 5655 5656 5656 5657 5657 5658
5631 5631 5631 5631 5632 5632 5632 5631 5631 5632 5632 5633 5634 5635 5635 5637 5637 5638 5638 5639 5640 5640 5641 5641 5642 5642 5642 5643 5642 5642 5642 5642 5642 5642 5643 5643 5643 5643 5644 5645 5646 5647 5647 5647 5648 5648 5648 5648 5648 5649 5649 5649 5649 5649 5649 5649 5649 5649 5648 5648 5648 5648 5648 5648 5647 5647 5647 5647 5648 5648 5648 5649 5649 5649 5650 5650 5651 5651 5652 5652 5653 5654 5654 5655 5656 5656
5627 5627 5627 5627 5627 5627 5627 5626 5626 5627 5627 5628 5629 5630 5631 5632 5633 5634 5634 5635 5636 5636 5637 5637 5638 5638 5639 5640 5640 5639 5638 5638 5639 5639 5639 5640 5640 5640 5641 5642 5643 5644 5644 5644 5645 5645 5646 5646 5646 5646 5646 5646 5646 5646 5646 5646 5646 5646 5646 5646 5646 5645 5645 5645 5645 5645 5645 5645 5646 5646 5646 5647 5647 5647 5648 5648 5649 5649 5650 5651 5651 5652 5653 5653 5654 5655
5623 5623 5623 5623 5623 5623 5622 5622 5622 5622 5623 5624 5625 5626 5627 5628 5629 5630 5631 5632 5632 5633 5633 5633 5634 5634 5635 5636 5636 5635 5635 5635 5636 5636 5636 5637 5637 5637 5637 5639 5640 5641 5641 5642 5642 5642 5643 5643 5643 5643 5643 5643 5643 5643 5643 5643 5643 5643 5643 5643 5643 5643 5643 5642 5642 5643 5643 5643 5643 5644 5644 5644 5645 5645 5646 5646 5647 5647 5648 5649 5649 5650 5651 5652 5652 5653
5619 5619 5619 5619 5619 5619 5619 5618 5618 5619 5619 5620 5621 5622 5623 5624 5625 5626 5627 5628 5629 5629 5629 5630 5630 5631 5632 5632 5632 5632 5632 5632 5632 5632 5633 5633 5633 5634 5634 5636 5637 5638 5638 5639 5639 5640 5640 5640 5640 5640 5641 5641 5641 5641 5641 5641 5641 5641 5641 5640 5640 5640 5640 5640 5640 5640 5641 5641 5641 5642 5642 5642 5643 5643 5644 5644 5645 5646 5646 5647 5648 5648 5649 5650 5651 5651
5614 5614 5614 5615 5615 5615 5615 5615 5615 5616 5617 5617 5618 5619 5620 5621 5622 5622 5622 5624 5625 5626 5625 5626 5627 5627 5627 5628 5628 5628 5629 5629 5629 5629 5630 5630 5630 5630 5631 5632 5634 5635 5635 5636 5636 5637 5637 5637 5637 5637 5637 5638 5638 5638 5638 5638 5638 5638 5638 5638 5637 5637 5637 5637 5638 5638 5638 5638 5639 5639 5640 5640 5641 5641 5642 5642 5643 5644 5644 5645 5646 5647 5647 5648 5649 5650
5609 5609 5609 5609 5610 5610 5611 5611 5612 5612 5613 5614 5615 5616 5616 5617 5618 5618 5619 5620 5622 5622 5622 5622 5623 5623 5624 5624 5624 5625 5626 5626 5626 5626 5627 5627 5627 5627 5628 5630 5631 5632 5633 5633 5633 5634 5634 5634 5635 5635 5635 5635 5635 5635 5635 5635 5635 5635 5635 5635 5635 5635 5635 5635 5635 5636 5636 5636 5637 5637 5638 5638 5639 5639 5640 5640 5641 5642 5642 5643 5644 5645 5646 5647 5647 5648
5604 5603 5603 5604 5604 5605 5606 5607 5607 5608 5609 5610 5611 5612 5612 5613 5614 5614 5615 5616 5617 5618 5618 5618 5619 5620 5620 5620 5621 5622 5622 5622 5622 5623 5623 5624 5624 5624 5626 5627 5628 5628 5630 5630 5631 5631 5631 5631 5632 5632 5632 5632 5632 5632 5632 5632 5632 5632 5632 5632 5632 5632 5632 5632 5633 5633 5634 5634 5635 5635 5636 5636 5637 5637 5638 5638 5639 5640 5641 5642 5642 5643 5644 5645 5645 5646
5598 5598 5598 5599 5599 5600 5601 5602 5603 5604 5605 5606 5607 5607 5608 5609 5610 5610 5611 5612 5613 5614 5614 5615 5615 5616 5616 5617 5617 5618 5618 5618 5618 5619 5621 5621 5621 5622 5623 5624 5625 5625 5626 5627 5627 5627 5627 5628 5628 5629 5629 5629 5629 5629 5629 5630 5630 5630 5629 5629 5629 5630 5630 5630 5631 5631 5631 5632 5632 5633 5633 5634 5635 5635 5636 5637 5637 5638 5639 5640 5640 5641 5642 5643 5644 5644
5592 5592 5593 5594 5595 5596 5597 5597 5598 5599 5600 5602 5602 5603 5604 5605 5606 5607 5607 5608 5609 5610 5611 5611 5611 5612 5612 5613 5614 5614 5614 5614 5615 5616 5617 5618 5618 5619 5620 5621 5622 5622 5623 5624 5625 5624 5624 5624 5625 5626 5627 5627 5627 5627 5627 5627 5627 5627 5627 5627 5627 5627 5627 5628 5628 5628 5629 5630 5630 5631 5631 5632 5632 5633 5634 5634 5635 5636 5637 5637 5638 5639 5640 5641 5642 5643
5587 5588 5589 5589 5590 5591 5592 5593 5594 5595 5596 5597 5598 5599 5600 5601 5602 5602 5603 5604 5605 5606 5607 5607 5607 5608 5609 5609 5610 5611 5611 5611 5612 5613 5614 5615 5616 5616 5617 5618 5619 5619 5620 5621 5622 5622 5622 5622 5622 5623 5623 5624 5624 5624 5624 5624 5624 5624 5624 5624 5624 5624 5625 5625 5626 5626 5627 5627 5628 5629 5629 5630 5630 5631 5632 5632 5633 5634 5635 5636 5637 5637 5638 5639 5640 5641
5582 5583 5584 5585 5586 5587 5588 5588 5589 5591 5592 5592 5593 5594 5595 5597 5597 5598 5599 5600 5601 5601 5602 5603 5603 5604 5605 5606 5606 5607 5607 5607 5609 5610 5611 5612 5612 5613 5613 5615 5616 5616 5617 5617 5618 5618 5619 5619 5619 5620 5620 5621 5621 5621 5621 5621 5621 5621 5621 5622 5622 5622 5622 5623 5623 5624 5624 5625 5626 5627 5627 5628 5628 5629 5630 5630 5631 5632 5633 5634 5635 5636 5637 5637 5638 5639
5579 5579 5580 5581 5582 5583 5584 5584 5585 5586 5587 5588 5589 5590 5591 5592 5593 5594 5595 5595 5596 5597 5598 5598 5599 5600 5601 5602 5602 5603 5603 5604 5605 5607 5608 5608 5609 5610 5611 5612 5612 5613 5614 5614 5614 5615 5616 5616 5616 5617 5617 5617 5618 5618 5618 5618 5618 5618 5618 5619 5619 5619 5620 5620 5621 5622 5622 5623 5623 5624 5625 5626 5626 5627 5627 5628 5629 5630 5631 5632 5633 5634 5635 5636 5637 5637
5574 5575 5576 5577 5578 5579 5579 5580 5581 5582 5583 5583 5584 5585 5587 5587 5588 5589 5590 5591 5592 5593 5593 5594 5595 5596 5597 5598 5599 5599 5600 5601 5602 5604 5605 5605 5606 5606 5607 5608 5609 5610 5611 5611 5611 5612 5612 5612 5613 5614 5615 5615 5615 5615 5615 5616 5616 5616 5616 5616 5617 5617 5617 5618 5619 5619 5620 5621 5621 5622 5622 5623 5624 5625 5625 5626 5627 5628 5629 5630 5631 5632 5633 5634 5635 5635
5569 5570 5571 5572 5573 5574 5575 5576 5577 5577 5578 5579 5580 5581 5582 5583 5584 5585 5586 5587 5587 5588 5589 5590 5591 5592 5593 5594 5595 5596 5596 5597 5599 5600 5601 5602 5602 5603 5604 5605 5605 5607 5607 5608 5608 5608 5609 5610 5610 5611 5612 5612 5612 5612 5612 5612 5613 5613 5613 5613 5614 5614 5615 5616 5616 5617 5617 5618 5619 5620 5620 5621 5622 5622 5623 5624 5625 5626 5627 5628 5629 5630 5631 5632 5632 5633
5565 5565 5566 5567 5569 5570 5570 5571 5572 5573 5574 5575 5576 5577 5578 5579 5580 5580 5581 5582 5583 5584 5585 5586 5587 5588 5589 5590 5591 5592 5593 5594 5595 5597 5597 5598 5599 5600 5601 5601 5602 5603 5604 5605 5605 5606 5606 5607 5607 5608 5608 5608 5609 5609 5610 5610 5610 5610 5611 5611 5612 5612 5613 5613 5614 5615 5615 5616 5617 5617 5618 5619 5619 5620 5621 5622 5622 5623 5624 5626 5627 5628 5629 5630 5631 5632
5560 5561 5562 5563 5564 5565 5566 5567 5567 5568 5569 5570 5571 5572 5573 5574 5575 5576 5577 5578 5579 5580 5581 5582 5583 5584 5585 5586 5587 5588 5589 5591 5592 5593 5594 5594 5595 5596 5597 5598 5599 5600 5601 5602 5602 5603 5603 5604 5604 5605 5605 5605 5606 5606 5607 5607 5608 5608 5608 5609 5609 5610 5610 5611 5612 5612 5613 5613 5614 5615 5616 5616 5617 5618 5618 5619 5620 5621 5622 5623 5625 5626 5627 5627 5628 5629
5555 5556 5557 5558 5559 5560 5561 5562 5563 5564 5565 5566 5567 5568 5569 5570 5571 5572 5572 5573 5575 5576 5577 5578 5579 5580 5582 5583 5584 5585 5586 5587 5588 5589 5590 5591 5592 5593 5594 5595 5596 5597 5597 5598 5599 5600 5600 5601 5601 5602 5602 5602 5603 5603 5604 5605 5605 5605 5606 5606 5607 5607 5608 5609 5609 5610 5611 5611 5612 5612 5613 5614 5615 5615 5616 5617 5618 5619 5620 5622 5622 5624 5625 5626 5627 5627
5551 5552 5553 5554 5555 5556 5557 5557 5558 5559 5561 5562 5563 5564 5565 5566 5567 5567 5568 5569 5571 5572 5572 5574 5575 5577 5578 5579 5580 5582 5582 5584 5585 5586 5587 5588 5589 5590 5591 5592 5592 5593 5594 5595 5596 5597 5597 5598 5598 5599 5599 5600 5600 5601 5601 5602 5602 5603 5603 5604 5604 5605 5606 5607 5607 5608 5608 5609 5609 5610 5611 5612 5612 5613 5614 5615 5616 5617 5618 5619 5621 5622 5622 5623 5624 5625
5547 5547 5548 5549 5551 5552 5552 5553 5554 5555 5556 5557 5558 5559 5560 5561 5562 5563 5564 5566 5567 5567 5569 5570 5572 5573 5574 5575 5577 5578 5579 5580 5581 5582 5583 5584 5586 5587 5587 5588 5589 5590 5591 5592 5592 5593 5594 5595 5595 5596 5596 5597 5597 5598 5598 5599 5599 5600 5601 5601 5602 5602 5603 5604 5605 5605 5606 5606 5607 5608 5608 5609 5610 5611 5612 5613 5614 5615 5616 5617 5618 5619 5621 5622 5622 5623
5542 5543 5544 5545 5547 5547 5548 5549 5550 5551 5552 5554 5555 5555 5556 5557 5558 5560 5561 5562 5563 5564 5565 5567 5568 5569 5571 5572 5573 5574 5576 5577 5578 5579 5580 5581 5582 5583 5584 5585 5586 5587 5588 5589 5589 5590 5591 5592 5592 5593 5594 5594 5595 5595 5595 5596 5597 5597 5598 5599 5600 5601 5601 5602 5602 5603 5603 5604 5605 5605 5606 5607 5607 5608 5610 5611 5612 5613 5614 5615 5617 5617 5618 5619 5621 5622
5539 5540 5541 5542 5542 5543 5544 5546 5547 5547 5549 5550 5551 5552 5552 5554 5555 5556 5557 5558 5559 5560 5562 5563 5564 5566 5567 5568 5570 5571 5572 5573 5574 5576 5577 5578 5579 5580 5581 5582 5583 5584 5585 5585 5586 5587 5588 5589 5589 5590 5591 5591 5592 5592 5593 5593 5594 5595 5596 5596 5597 5598 5599 5599 5600 5601 5601 5602 5602 5603 5604 5604 5605 5606 5607 5608 5610 5611 5612 5613 5614 5615 5617 5617 5618 5620
5535 5536 5537 5538 5539 5540 5541 5542 5543 5544 5545 5546 5547 5548 5549 5550 5551 5552 5553 5554 5555 5557 5558 5559 5561 5562 5563 5565 5566 5567 5569 5570 5571 5572 5573 5575 5576 5577 5578 5579 5579 5580 5581 5582 5583 5584 5585 5586 5587 5587 5588 5588 5589 5589 5590 5591 5592 5592 5593 5594 5595 5596 5596 5597 5597 5598 5599 5599 5600 5601 5602 5602 5603 5604 5605 5607 5608 5609 5610 5611 5612 5613 5614 5616 5617 5617
5531 5532 5533 5534 5535 5536 5537 5538 5539 5540 5542 5543 5544 5545 5546 5547 5548 5549 5550 5551 5552 5553 5555 5556 5557 5559 5560 5561 5562 5564 5566 5567 5568 5569 5570 5572 5572 5573 5574 5576 5576 5577 5578 5579 5580 5581 5582 5583 5583 5584 5585 5586 5586 5587 5587 5588 5589 5590 5591 5592 5592 5593 5594 5594 5595 5596 5596 5597 5598 5598 5599 5600 5601 5602 5603 5605 5606 5607 5608 5609 5610 5611 5612 5613 5614 5615
5526 5527 5529 5530 5531 5532 5533 5534 5536 5537 5538 5539 5540 5541 5542 5543 5544 5546 5547 5547 5549 5550 5551 5553 5554 5555 5556 5557 5559 5561 5562 5563 5565 5566 5567 5568 5569 5570 5571 5572 5573 5574 5575 5576 5577 5578 5579 5580 5581 5581 5582 5583 5583 5584 5585 5586 5587 5587 5588 5589 5590 5591 5592 5592 5593 5593 5594 5595 5595 5596 5597 5598 5599 5600 5602 5603 5604 5605 5606 5607 5608 5609 5610 5611 5612 5613
5522 5523 5524 5525 5527 5528 5529 5531 5532 5533 5535 5536 5537 5538 5539 5540 5541 5542 5543 5544 5546 5547 5548 5550 5551 5552 5553 5554 5556 5557 5559 5560 5561 5563 5564 5565 5566 5567 5568 5569 5570 5571 5572 5573 5574 5575 5576 5577 5577 5578 5579 5580 5580 5581 5582 5583 5584 5585 5586 5586 5587 5588 5589 5590 5591 5591 5592 5592 5593 5594 5595 5596 5597 5598 5600 5601 5602 5603 5604 5605 5606 5607 5608 5609 5610 5611
5517 5518 5519 5521 5522 5524 5525 5527 5528 5530 5531 5532 5533 5535 5536 5537 5538 5539 5540 5541 5543 5544 5545 5546 5547 5548 5550 5551 5552 5554 5556 5557 5558 5560 5561 5562 5563 5564 5565 5566 5567 5568 5569 5570 5571 5572 5573 5574 5575 5575 5576 5577 5577 5578 5579 5580 5581 5582 5583 5584 5585 5586 5587 5587 5588 5589 5589 5590 5591 5592 5593 5594 5595 5596 5597 5599 5600 5601 5602 5603 5604 5605 5606 5607 5608 5609
5512 5513 5515 5516 5518 5519 5521 5523 5524 5526 5527 5528 5530 5531 5532 5534 5535 5536 5537 5538 5540 5541 5542 5543 5544 5546 5547 5548 5549 5551 5552 5554 5555 5557 5558 5559 5560 5561 5562 5563 5564 5565 5566 5567 5568 5569 5570 5571 5572 5572 5573 5574 5575 5576 5577 5578 5579 5580 5580 5581 5582 5583 5584 5585 5586 5586 5587 5588 5589 5590 5591 5592 5593 5594 5595 5597 5598 5599 5600 5601 5602 5603 5604 5605 5606 5607
5507 5509 5511 5512 5514 5515 5517 5519 5521 5522 5523 5525 5526 5527 5529 5530 5532 5533 5534 5535 5537 5538 5539 5540 5541 5542 5544 5545 5546 5548 5549 5551 5552 5553 5555 5556 5557 5558 5559 5560 5561 5562 5563 5564 5565 5567 5567 5568 5569 5569 5570 5571 5572 5573 5574 5575 5576 5577 5578 5579 5580 5581 5582 5582 5583 5584 5585 5586 5587 5587 5588 5590 5591 5592 5593 5594 5596 5597 5598 5599 5600 5601 5602 5602 5603 5604